Location: Kers�oc
(48.4876°N, 4.7189°W)
Time: 02:53:55
(UTC+00:00)

Daily predictions for brighter satellites

Satellite Brightness Start Highest point End
(mag) Time Altitude Azimuth Time Altitude Azimuth Time Altitude Azimuth
CENTAUR R/B 3.7 00:41:03 41° NNW 00:41:03 41° NNW 00:47:30 10° NE
Cosmos 1980 Rocket 3.8 01:17:17 31° NNE 01:17:17 31° NNE 01:20:06 10° NNE
SL-16 R/B 4.2 01:21:47 21° ENE 01:21:47 21° ENE 01:24:22 10° NE
Cosmos 2344 4.2 01:13:20 10° NW 01:22:16 78° NE 01:34:45 10° SE
Resurs 1-4 Rocket 3.9 01:20:21 10° NNE 01:23:00 26° NE 01:23:00 26° NE
ATLAS 3B R/B 3.2 01:38:02 54° NE 01:38:02 54° NE 01:43:12 10° NE
CZ-2D R/B 3.5 01:41:12 10° NNE 01:44:32 36° NE 01:44:32 36° NE
Cosmos 1697 Rocket 4.2 01:49:01 31° NNW 01:49:01 31° NNW 01:52:34 10° NNE
Cosmos 2263 Rocket 4.3 01:43:02 10° NNW 01:44:18 17° NW 01:44:18 17° NW
SL-16 R/B 3.1 01:57:44 52° NNW 01:57:44 52° NNW 02:02:20 10° NNW
ADEOS II 3.6 01:51:43 10° NNE 01:55:21 31° ENE 01:55:21 31° ENE
Cosmos 2322 Rocket 3.5 02:00:31 35° ENE 02:00:31 35° ENE 02:04:25 10° NE
ADEOS Rocket 3.5 02:01:32 67° NW 02:01:32 67° NW 02:08:01 10° NNW
USA 234 3.8 02:02:06 10° ENE 02:08:22 51° NNW 02:09:09 49° NW
Cosmos 2333 Rocket 4.4 02:12:10 15° ESE 02:13:19 16° E 02:16:36 10° ENE
Lacrosse 4 Rocket 4.3 02:12:54 10° N 02:15:27 16° NE 02:18:00 10° ENE
Cosmos 2034 Rocket 4.1 02:23:05 74° ENE 02:23:05 74° ENE 02:29:06 10° NNE
Helios 1B rocket 4.5 02:24:32 10° NNE 02:26:29 26° NNE 02:26:29 26° NNE
Cosmos 1464 Rocket 4.2 02:31:56 59° NNW 02:31:56 59° NNW 02:37:05 10° N
Cosmos 2360 Rocket 2.9 02:35:47 46° ESE 02:35:47 46° ESE 02:41:02 10° NE
Cosmos 1844 Rocket 2.9 02:32:24 10° NNW 02:37:22 64° NNE 02:37:22 64° NNE
ATLAS 5 CENTAUR R/B 3.3 02:43:22 27° E 02:43:22 27° E 02:45:56 10° NE
NOSS 3-1 (C) 4.2 02:42:54 35° ESE 02:43:09 35° ESE 02:48:36 10° NE
IRS-1D 3.8 02:44:10 10° NNE 02:49:26 69° E 02:49:26 69° E
IDEFIX/ARIANE 42P 2.9 02:44:28 10° NNE 02:49:43 61° ESE 02:49:47 61° ESE
Cosmos 2026 Rocket 4.1 02:45:06 10° N 02:51:18 74° E 02:52:57 51° SSE
BREEZE-M DEB (TANK) 4.2 02:36:29 10° W 02:57:09 83° N 03:02:05 10° E
MSX 4.3 02:51:36 10° NNE 02:57:18 54° E 02:58:45 43° SSE
Cosmos 2219 Rocket 3.7 02:55:30 23° SE 02:57:29 29° ESE 03:02:12 10° NE
Cosmos 1980 Rocket 3.7 02:59:03 24° NW 02:59:05 24° NW 03:03:37 10° N
GEOS 3 Rocket 4.4 02:56:41 10° NNE 03:01:31 40° NW 03:01:35 40° NW
Cosmos 1371 Rocket 4.2 03:01:51 61° SE 03:02:13 63° ESE 03:07:31 10° NNE
Cosmos 2237 4.1 03:02:48 86° SSW 03:02:56 90° WNW 03:08:43 10° NNE
SL-16 R/B 2.4 03:03:39 57° NW 03:03:39 57° NW 03:09:04 10° NNE
Resurs 1-4 Rocket 3.2 03:00:18 10° N 03:04:04 32° NW 03:04:04 32° NW
Cosmos 1606 3.9 03:06:15 41° NE 03:06:15 41° NE 03:08:58 10° NNE
Cosmos 2278 Rocket 4.3 03:00:33 10° NNW 03:05:18 26° NE 03:10:02 10° ESE
Cosmos 1627 Rocket 4.4 02:59:58 10° N 03:06:16 85° W 03:07:40 57° S
Cosmos 1190 Rocket 4.4 03:03:57 10° NNW 03:07:55 52° NW 03:07:55 52° NW
Cosmos 1408 Rocket 4.4 03:05:29 10° N 03:08:36 44° NNW 03:08:36 44° NNW
Cosmos 1809 Rocket 4.4 03:04:17 10° N 03:10:29 85° E 03:12:57 39° SSE
Cosmos 1844 3.6 03:05:30 10° NNW 03:11:19 81° WSW 03:12:44 53° SSE
Cosmos 1500 Rocket 4.0 03:08:34 10° N 03:12:51 58° ENE 03:13:09 56° E
Meteor 2-21 4.5 03:08:34 10° N 03:14:43 78° E 03:18:40 24° SSE
COSMOS 2428 4.1 03:12:33 20° SSE 03:15:31 32° ESE 03:20:30 10° NE
Cosmos 2084 Rocket 4.2 03:22:27 40° N 03:22:27 40° N 03:25:28 10° NE
Cosmos 1624 Rocket 3.9 03:24:27 67° SSW 03:25:12 86° ESE 03:30:30 10° NNE
USA 229 DEB 4.4 03:22:29 28° S 03:25:25 44° ESE 03:31:47 10° NE
USA 229 4.4 03:22:33 27° S 03:25:31 44° ESE 03:31:53 10° NE
CZ-2D R/B 3.4 03:21:50 10° N 03:25:51 26° NW 03:25:51 26° NW
NOSS 2-3 (E) 3.7 03:27:12 61° SE 03:27:22 62° SE 03:32:05 10° NE
ATLAS 3B R/B 3.8 03:25:17 25° WNW 03:27:51 33° NNW 03:34:02 10° NE
CRYOSAT 2 4.4 03:30:30 10° N 03:35:18 59° W 03:35:21 59° W
ADEOS II 2.7 03:31:25 10° N 03:36:15 37° WNW 03:36:17 37° WNW
Spot 1 4.4 03:35:22 15° SSE 03:39:31 88° ENE 03:44:42 10° NNW
SL-16 R/B 4.3 03:42:50 15° WNW 03:42:50 15° WNW 03:44:38 10° NW
Meteor 2-2 Rocket 4.3 03:41:10 49° WSW 03:42:09 55° WNW 03:47:41 10° N
Cosmos 2322 Rocket 2.8 03:42:20 37° WNW 03:43:16 39° NW 03:48:32 10° NNE
Cosmos 2279 Rocket 3.9 03:40:35 29° S 03:43:59 88° W 03:50:16 10° N
Cosmos 1092 Rocket 4.4 03:39:11 10° NNW 03:44:50 39° W 03:45:06 39° W
IRS-P3 4.1 03:40:27 10° NNE 03:45:50 87° ESE 03:48:22 33° SSW
NOSS 3-1 (A) 3.7 03:44:24 31° S 03:46:51 57° ESE 03:52:58 10° NE
USA 234 4.2 03:44:38 10° ENE 03:50:42 43° N 03:56:28 11° WNW
Cosmos 1340 Rocket 4.4 03:47:07 10° N 03:50:53 36° ENE 03:54:35 10° SE
CZ-4B R/B 4.0 03:46:13 10° NNE 03:51:14 60° ESE 03:55:23 16° S
Cosmos 1743 Rocket 3.5 03:47:18 10° NNW 03:51:40 60° W 03:52:11 55° SW
SL-08 R/B 3.1 03:47:34 11° SSE 03:51:56 84° WSW 03:56:35 10° NNW
Cosmos 2237 Rocket 4.3 03:47:34 10° SSE 03:51:57 24° ESE 03:56:22 10° NE
Cosmos 2266 Rocket 4.2 03:47:36 10° N 03:53:49 70° E 03:59:54 10° SSE
Lacrosse 4 Rocket 1.4 03:50:34 10° NNW 03:54:44 83° NE 03:58:59 10° SE
CBERS-1 4.4 03:50:01 10° N 03:54:53 46° WNW 03:55:53 40° W
Cosmos 2333 Rocket 2.1 03:54:12 34° SSW 03:56:46 89° WNW 04:02:28 10° NNE
USA 32 4.0 03:55:07 37° SSW 03:57:05 63° W 04:02:20 10° N
CZ-2C R/B 4.4 03:53:28 10° NNE 03:57:10 34° E 04:00:46 10° SSE
Cosmos 2221 3.3 03:59:50 34° WNW 03:59:50 34° WNW 04:03:40 10° N
Cosmos 1634 Rocket 4.3 03:58:17 35° WSW 04:00:16 46° WNW 04:06:12 10° N
Cosmos 1602 3.8 03:57:39 10° N 04:01:37 80° E 04:05:32 10° SSE
Cosmos 2333 4.1 03:59:31 36° SW 04:01:51 72° WNW 04:07:30 10° NNE
Cosmos 1452 Rocket 3.8 03:59:15 19° S 04:03:01 64° ESE 04:08:14 10° NNE
Helios 1B rocket 4.4 04:00:56 10° NNW 04:02:45 15° NW 04:02:45 15° NW
ALOS 3.1 04:00:25 10° NNE 04:04:58 49° E 04:09:29 10° S
Cosmos 676 Rocket 4.2 04:00:45 10° NW 04:05:38 43° WSW 04:09:36 15° S
Cosmos 1666 Rocket 4.3 04:02:03 10° N 04:06:19 54° ENE 04:10:33 10° SSE
ARIANE 5 R/B 2.4 04:01:57 10° NNE 04:07:06 75° WNW 04:10:03 25° SSW
ERS-1 4.4 04:02:46 10° NNE 04:07:54 76° WNW 04:11:07 24° SSW
Cosmos 1842 Rocket 4.5 04:10:20 30° WNW 04:10:29 30° WNW 04:14:24 10° N
SL-24 DEB 4.4 04:07:39 10° N 04:12:27 77° E 04:17:14 10° S
NOSS 2-3 (D) 3.7 04:11:29 38° WSW 04:12:59 65° NW 04:17:55 10° NE
Cosmos 1812 4.3 04:10:52 10° SSE 04:14:24 36° E 04:17:57 10° NNE
Cosmos 1271 Rocket 3.1 04:15:27 39° WSW 04:16:12 44° WNW 04:19:58 10° N
Cosmos 2056 Rocket 4.1 04:15:27 29° W 04:17:18 39° WNW 04:22:12 10° N
Cosmos 1484 Rocket 4.3 04:14:40 10° NNE 04:18:10 35° E 04:21:36 10° SSE
Cosmos 2360 Rocket 3.0 04:17:34 26° W 04:19:49 35° NW 04:24:59 10° NNE
Cosmos 1844 Rocket 4.3 04:17:19 10° NW 04:18:53 16° WNW 04:18:53 16° WNW
Meteor 1-20 Rocket 4.3 04:16:05 10° NNW 04:21:32 53° W 04:26:52 10° S
MOS 1 Rocket 3.2 04:21:20 10° S 04:25:58 58° W 04:30:25 10° NNW
ATLAS 5 CENTAUR R/B 2.4 04:24:53 25° W 04:26:32 36° NW 04:30:49 10° NNE
NOSS 2-3 (C) 4.0 04:25:09 28° W 04:27:05 50° NW 04:32:00 10° NE
Cosmos 1500 3.0 04:23:31 10° N 04:27:17 87° W 04:31:03 10° S
Cosmos 1933 3.5 04:25:37 27° SW 04:27:32 51° WNW 04:31:28 10° N
IDEFIX/ARIANE 42P 3.9 04:24:47 10° N 04:28:54 24° WNW 04:30:34 20° W
Geosat 3.9 04:24:26 10° SSE 04:29:27 71° WSW 04:34:30 10° NNW
CZ-2C R/B 2.5 04:25:16 10° N 04:30:27 72° WNW 04:35:36 10° SSW
Spot 4 Rocket 4.0 04:25:57 10° NNE 04:31:08 78° WNW 04:36:15 10° SSW
NOSS 3-1 (C) 3.7 04:30:19 23° WSW 04:33:42 52° NW 04:40:04 10° NE
NOSS 0 Rocket 4.2 04:33:55 10° SSW 04:40:06 70° ESE 04:46:18 10° NNE
Cosmos 1932 4.5 04:34:13 10° NW 04:40:19 57° WSW 04:46:23 10° SSE
Cosmos 2219 Rocket 2.4 04:37:16 19° SW 04:41:08 52° WNW 04:46:38 10° NNE
BREEZE M DEB (TANK) 3.6 04:44:51 11° S 04:44:51 11° S 04:45:11 10° S
Meteor 1-5 Rocket 4.1 04:40:27 10° N 04:45:52 85° ENE 04:51:10 10° SSE
FENGYUN 3A 3.6 04:41:16 10° N 04:46:38 68° WNW 04:51:57 10° SSW
SL-16 R/B 4.1 04:45:36 10° WNW 04:48:52 15° NW 04:52:08 10° N
Cosmos 2278 Rocket 2.1 04:44:15 10° NNW 04:49:55 69° WSW 04:55:32 10° SSE
Cosmos 44 4.2 04:45:11 10° SSW 04:50:29 57° ESE 04:55:47 10° NE
CZ-4C R/B 4.3 04:48:35 10° SSE 04:52:17 22° ESE 04:56:29 10° ENE
Cosmos 1151 Rocket 3.0 04:48:05 10° SSW 04:52:27 69° W 04:56:50 10° N
Cosmos 1655 Rocket 4.3 04:47:08 10° NNW 04:52:56 42° W 04:58:41 10° SSW
Cosmos 1633 Rocket 3.1 04:49:31 10° NNW 04:53:54 61° W 04:58:15 10° S
Meteor 1-26 Rocket 4.3 04:49:41 10° SSW 04:55:13 57° WNW 05:00:38 10° N
SL-16 R/B 4.4 04:51:48 10° SSE 04:56:26 27° ESE 05:01:05 10° NE
Sich 1 4.0 04:53:18 10° NNW 04:57:04 28° W 05:00:49 10° SSW
COSMOS 2428 3.1 04:54:36 13° SW 04:59:36 48° NW 05:05:07 10° NNE
Cosmos 2322 4.4 04:55:35 14° WSW 04:59:57 37° NW 05:05:16 10° NNE
Cosmos 1515 Rocket 4.2 04:55:55 10° S 05:00:11 60° E 05:04:28 10° NNE
Nadezhda 2 Rocket 4.5 04:58:41 10° N 05:04:51 87° W 05:10:57 10° S
NOSS 2 (A) 4.3 05:04:00 10° NW 05:06:43 51° SW 05:09:05 10° SSE
Cosmos 968 Rocket 4.1 05:02:00 10° NNW 05:07:16 63° ENE 05:12:27 10° SE
NOSS 2-2 (D) 3.3 05:04:41 10° SSW 05:08:02 64° SE 05:11:41 10° NE
Cosmos 1110 Rocket 4.0 05:03:55 10° SSW 05:09:12 69° WNW 05:14:29 10° NNE
Aureole 1 Rocket 3.2 05:05:06 10° NNW 05:10:36 69° WSW 05:14:44 10° S
SL-08 ROCKET BODY 4.4 05:04:59 10° N 05:10:54 86° E 05:16:45 10° S
Cosmos 1666 2.8 05:07:28 10° NNW 05:11:08 50° W 05:14:47 10° S
BREEZE M DEB (TANK) 4.4 04:57:05 12° WSW 05:11:15 87° N 05:15:28 10° E
YAOGAN 6 4.2 05:08:47 10° NNE 05:12:07 37° E 05:15:25 10° SSE
Cosmos 1782 3.8 05:09:45 10° SW 05:13:09 27° WNW 05:16:33 10° NNW
CZ-4C R/B 3.8 05:11:50 10° SSE 05:14:59 53° ENE 05:18:15 10° N
Cosmos 1943 Rocket 3.3 05:10:26 10° NNW 05:15:57 50° NE 05:21:26 10° SE
USA 229 DEB 4.0 05:09:57 10° WSW 05:16:17 52° NW 05:23:06 10° NE
USA 229 4.0 05:10:02 10° WSW 05:16:22 52° NW 05:23:12 10° NE
H-2A R/B 4.1 05:14:43 10° SE 05:18:49 35° ENE 05:22:55 10° N
Gbstr 26 Del rocket 4.3 05:12:20 10° WNW 05:20:03 77° SSW 05:26:30 10° SE
ATLAS 3B R/B 4.5 05:15:29 10° NW 05:20:44 23° N 05:26:10 10° NE
SJ-12 4.3 05:20:30 10° NNE 05:24:37 70° ESE 05:28:41 10° S
Cosmos 1980 3.7 05:19:03 10° SW 05:24:42 71° WNW 05:30:22 10° NNE
NOSS 2-2 (E) 3.1 05:22:25 10° SW 05:25:46 65° NW 05:29:34 10° NE
Cosmos 1340 Rocket 4.1 05:24:03 10° NW 05:27:04 21° W 05:30:04 10° SW
Cosmos 2322 Rocket 4.3 05:27:08 10° NW 05:29:01 12° NNW 05:30:53 10° N
CZ-4B R/B 4.4 05:24:58 10° NNE 05:29:08 67° E 05:33:05 10° S
Landsat 5 3.3 05:25:42 10° S 05:29:44 75° WSW 05:33:40 10° NNW
SKYMED 2 3.6 05:26:17 10° SSE 05:30:37 87° WSW 05:35:00 10° NNW
USA 234 3.8 05:26:44 10° ESE 05:33:09 63° NNE 05:39:36 10° NW
